Wind_Speed
4 4 4 4 5 5 6 6 7 7 8 8 9 9 9 10 12 13 13 14 13 14 15 14 14 13 13 13 13 12 13 12 12 11 10 9 9 8 7 7 7 6 6
4 5 4 4 5 6 6 7 9 9 10 10 10 10 10 11 12 13 13 13 13 14 14 14 14 13 13 12 12 12 12 12 11 11 10 9 8 8 7 7 6 6 5
4 4 5 5 6 6 6 7 9 10 10 10 10 10 10 11 11 12 13 13 13 14 14 13 13 13 12 12 11 11 11 11 10 10 9 8 8 7 7 7 6 6 5
5 5 5 6 6 7 7 8 9 10 10 10 10 10 11 11 11 12 13 13 13 14 13 13 13 12 12 11 11 10 10 10 9 9 8 7 7 7 6 6 5 5 5
6 6 6 7 7 8 8 9 9 9 10 10 10 11 12 12 12 12 12 13 13 13 13 13 12 12 11 10 10 9 9 8 8 7 7 6 6 6 5 5 4 4 5
8 8 7 9 9 8 8 9 10 10 10 10 10 11 12 12 13 12 12 13 12 12 12 12 11 11 10 10 9 9 8 7 7 7 6 5 5 5 4 4 3 3 4
9 9 9 10 9 9 9 9 9 10 10 11 11 11 12 12 12 12 12 12 12 11 11 10 9 9 9 9 9 8 7 7 7 6 6 5 5 4 4 4 3 3 3
9 9 10 10 10 9 9 9 9 10 11 11 11 10 11 12 12 12 12 11 11 10 9 9 9 8 8 8 7 7 7 6 5 5 5 4 4 4 4 3 3 2 2
10 10 10 10 10 10 9 9 9 10 10 10 11 11 11 11 12 12 11 10 10 9 9 8 8 7 7 7 6 6 5 5 5 4 4 4 3 3 3 2 2 1 1
10 10 10 10 10 10 9 9 9 10 10 10 11 11 10 10 10 11 10 9 8 8 8 7 7 7 7 6 6 5 5 5 4 3 3 3 2 2 1 1 1 0 0
11 10 10 10 10 9 9 9 9 9 9 9 10 10 9 9 9 9 9 8 8 7 6 6 6 6 6 5 5 4 3 3 3 2 2 2 2 1 0 0 1 1 2
10 10 10 10 10 9 10 10 9 9 8 9 9 8 9 8 8 8 8 8 7 6 5 5 5 5 5 5 4 3 2 2 1 1 0 0 0 1 1 1 1 2 2
11 10 10 10 10 10 9 9 9 8 8 8 8 9 9 8 8 8 7 7 6 6 5 4 5 5 4 4 3 2 1 1 1 2 2 2 1 2 2 2 3 3 3
11 11 10 10 10 10 10 9 9 9 9 8 8 8 7 7 7 7 7 6 5 5 4 4 4 4 3 3 2 1 0 0 2 2 2 2 2 3 3 4 4 5 5
12 11 11 11 11 10 10 10 9 9 8 7 7 7 6 6 6 7 7 6 5 4 4 3 3 3 2 2 1 1 1 1 3 3 4 3 3 3 4 4 5 5 6
12 12 12 12 11 11 10 10 9 8 8 7 7 6 6 6 6 6 5 5 4 4 3 3 2 2 1 0 1 2 3 3 4 4 4 4 4 5 6 6 6 6 6
13 13 13 13 12 12 11 10 9 8 8 7 7 5 5 6 6 5 4 4 3 3 2 2 1 1 0 1 2 3 4 4 4 5 6 6 6 6 6 7 7 7 7
14 14 14 13 13 12 11 9 9 8 8 7 6 6 6 5 5 5 5 4 3 2 1 0 0 1 1 2 3 4 4 4 5 6 7 7 8 7 7 7 8 7 7
13 13 13 12 12 11 10 10 9 8 8 7 7 6 6 5 5 5 5 4 3 2 2 1 1 1 2 3 4 4 5 5 5 6 6 7 8 8 8 8 9 8 8
12 12 12 12 11 11 11 10 9 9 8 8 7 6 6 5 5 5 4 4 3 3 3 2 1 3 3 4 4 5 5 6 6 6 7 7 8 8 9 9 10 10 9
11 11 11 12 11 11 11 10 10 9 9 8 7 7 6 5 5 4 3 3 3 3 3 3 3 4 4 5 6 6 6 6 7 7 8 8 8 9 9 10 10 10 10
10 11 11 11 10 11 11 10 10 10 10 9 8 7 6 6 5 4 3 3 3 3 3 4 4 5 5 6 6 6 6 7 8 8 8 9 10 10 11 10 11 11 11
9 10 10 10 9 10 10 10 10 10 9 9 8 7 5 5 4 3 3 2 3 4 4 5 5 5 5 6 7 7 7 8 9 9 9 10 11 11 11 11 12 12 12
8 8 8 8 8 9 9 9 9 9 8 8 7 6 5 4 4 3 3 3 3 4 5 6 6 6 6 7 7 8 8 9 9 10 10 11 11 12 12 12 13 13 13
6 6 6 7 7 7 8 8 7 7 7 7 7 6 6 5 4 4 4 4 5 6 6 7 6 7 7 8 8 9 9 9 10 11 11 12 12 12 13 13 14 14 14
4 5 5 5 6 6 6 6 6 7 7 6 6 6 6 6 5 5 5 5 6 7 7 7 8 8 8 9 9 9 10 10 11 11 12 13 13 13 13 13 14 14 14
Wind_Direction
78 84 83 80 77 74 69 66 74 89 101 108 109 108 110 120 125 126 127 127 127 129 131 129 126 126 128 126 125 126 126 120 116 116 117 117 118 119 116 116 114 118 117
84 85 87 87 84 82 77 72 79 94 104 107 108 109 112 120 123 127 127 126 125 129 129 126 126 125 125 124 124 124 121 122 118 115 114 111 112 112 114 115 113 109 107
88 91 89 89 89 90 86 83 87 97 104 106 108 112 115 118 122 124 124 125 125 126 128 127 127 124 122 121 123 123 120 120 116 113 113 108 103 105 108 108 103 102 109
91 97 95 94 92 91 89 87 91 98 103 109 110 114 117 119 122 123 124 123 122 124 125 123 123 122 119 118 120 121 118 114 112 109 109 107 105 108 106 102 99 100 99
91 97 96 94 93 93 91 89 90 97 103 108 112 113 114 116 120 123 122 121 121 123 125 124 123 120 119 117 118 121 118 112 107 108 109 110 110 106 99 100 102 93 94
86 91 94 94 91 94 96 96 94 96 103 107 110 110 110 113 118 120 121 122 122 122 126 123 120 117 117 116 117 119 118 113 108 108 108 110 112 109 103 107 109 102 102
84 87 89 90 91 95 102 101 101 98 103 108 109 109 111 115 119 118 119 121 122 122 123 123 122 118 116 118 117 117 117 111 108 105 104 108 108 107 103 108 115 116 110
87 87 89 91 90 91 101 101 103 103 107 110 108 109 114 114 114 115 117 121 123 123 122 120 121 119 119 118 115 113 111 109 104 105 108 111 113 108 107 107 115 119 119
83 86 90 90 90 89 93 97 101 102 110 113 110 110 114 116 115 114 116 120 121 120 119 120 122 120 122 118 116 115 111 109 108 109 113 113 118 115 113 107 107 108 115
82 87 92 89 89 89 89 94 101 102 105 112 117 114 116 119 118 115 117 121 122 120 121 122 121 126 121 115 115 116 116 115 113 112 115 117 123 116 104 120 122 172 222
85 88 91 89 90 94 93 95 103 105 104 109 115 115 115 119 119 119 121 121 122 122 122 121 119 124 119 111 110 113 115 113 121 123 123 129 128 110 63 253 270 272 264
87 88 89 92 93 97 99 98 102 107 108 111 116 115 114 119 119 121 117 116 114 113 112 116 115 111 112 110 113 115 109 108 99 76 17 287 254 291 300 292 297 286 276
86 87 86 87 91 95 98 98 100 104 106 111 116 118 120 121 124 122 118 118 115 116 117 119 113 111 109 116 117 109 101 93 358 336 326 288 284 298 298 298 295 288 277
82 84 86 89 91 93 97 99 97 100 104 108 112 114 120 121 123 125 125 123 119 117 115 113 111 112 116 117 123 125 75 11 329 317 326 318 317 310 307 304 295 287 284
78 83 88 91 90 94 98 96 92 96 101 106 108 113 122 129 129 119 120 122 121 121 116 105 108 112 109 96 76 320 332 306 325 318 310 305 307 307 308 307 295 292 290
78 82 84 87 87 89 93 93 92 97 98 99 104 109 116 125 121 115 110 116 127 128 123 114 117 125 120 136 268 285 298 302 310 313 306 302 298 296 304 301 295 291 291
79 83 84 86 89 89 91 91 92 92 92 94 98 107 113 118 120 118 116 118 120 125 128 128 148 150 217 267 298 313 318 306 305 305 297 294 290 289 297 300 298 291 293
75 81 83 84 85 88 89 86 86 89 92 97 101 105 113 115 115 106 109 110 112 115 110 101 295 275 292 303 305 312 322 317 303 299 299 301 298 293 291 294 295 292 290
72 78 81 81 82 82 83 81 81 88 89 93 98 99 103 107 105 102 99 94 92 77 54 33 353 332 320 312 308 311 316 317 312 305 304 305 301 298 295 294 295 294 292
71 73 76 77 79 79 78 76 74 77 81 84 90 93 98 98 94 94 92 85 63 53 40 25 349 330 325 317 310 306 307 308 311 306 307 308 306 302 298 293 293 292 292
69 71 73 76 80 81 78 75 73 75 75 76 80 81 84 81 77 74 72 63 43 32 26 18 1 339 324 316 315 313 309 304 314 312 311 310 309 302 298 298 297 295 295
69 69 71 73 75 76 75 76 73 72 71 70 71 76 76 75 71 63 54 44 28 6 355 350 349 344 337 331 327 325 319 316 314 312 312 313 309 304 300 300 297 294 294
70 69 70 73 75 79 76 75 73 71 68 64 64 69 70 65 57 51 42 27 358 348 339 332 329 328 328 328 327 326 321 318 319 316 315 313 311 307 305 300 297 296 292
69 71 72 72 70 75 71 73 70 67 63 59 57 60 56 48 43 34 12 347 341 340 338 332 325 322 321 324 324 322 320 320 319 315 314 313 311 307 305 302 301 297 293
64 67 67 68 68 65 56 62 63 58 57 54 49 45 36 29 22 11 0 352 344 338 336 335 327 321 318 318 320 320 318 315 315 315 314 313 311 307 305 304 304 298 294
60 60 60 60 57 52 46 55 62 54 49 48 46 39 25 15 6 1 354 347 343 337 331 329 325 323 320 318 319 318 317 315 312 313 313 313 311 307 305 304 305 300 296
Height
5872 5871 5870 5870 5870 5869 5868 5865 5862 5860 5861 5864 5865 5866 5866 5866 5868 5869 5870 5871 5872 5873 5874 5875 5876 5878 5879 5880 5881 5882 5882 5883 5884 5884 5885 5885 5885 5886 5886 5886 5886 5886 5886
5872 5872 5871 5871 5871 5870 5869 5867 5864 5863 5864 5866 5867 5868 5868 5869 5870 5871 5872 5873 5874 5875 5876 5877 5879 5879 5880 5881 5882 5883 5884 5885 5885 5885 5886 5886 5886 5887 5887 5887 5887 5886 5886
5873 5872 5872 5872 5872 5871 5871 5870 5868 5867 5868 5869 5870 5870 5871 5871 5872 5873 5874 5875 5876 5877 5878 5879 5880 5881 5882 5883 5884 5885 5885 5886 5886 5886 5887 5887 5887 5887 5888 5888 5887 5887 5887
5873 5873 5873 5873 5873 5873 5873 5872 5871 5871 5871 5872 5872 5872 5873 5874 5874 5875 5876 5877 5878 5879 5880 5882 5883 5883 5884 5885 5886 5886 5887 5887 5887 5888 5888 5888 5888 5889 5889 5889 5888 5888 5888
5874 5874 5874 5874 5874 5874 5874 5874 5874 5874 5874 5874 5875 5875 5875 5876 5877 5877 5878 5879 5880 5881 5882 5884 5885 5885 5886 5887 5887 5888 5888 5888 5888 5888 5889 5889 5890 5890 5890 5890 5889 5889 5889
5875 5875 5875 5875 5875 5875 5875 5876 5876 5876 5876 5877 5877 5877 5878 5879 5879 5880 5881 5882 5882 5883 5884 5886 5886 5887 5888 5888 5889 5890 5890 5890 5890 5890 5890 5890 5891 5890 5890 5890 5890 5890 5890
5876 5876 5876 5876 5876 5877 5877 5877 5877 5878 5878 5879 5879 5880 5880 5881 5882 5882 5883 5883 5884 5885 5886 5887 5888 5889 5890 5890 5890 5891 5891 5891 5891 5891 5891 5891 5891 5891 5891 5891 5891 5891 5890
5878 5878 5878 5878 5878 5878 5878 5879 5879 5879 5880 5881 5881 5882 5882 5883 5884 5884 5885 5885 5886 5887 5888 5889 5890 5890 5891 5891 5892 5892 5892 5892 5892 5892 5892 5892 5892 5892 5892 5892 5891 5891 5891
5880 5880 5880 5879 5880 5880 5880 5880 5881 5881 5882 5882 5883 5884 5884 5885 5885 5886 5887 5887 5888 5889 5890 5890 5891 5892 5892 5892 5892 5893 5893 5893 5893 5892 5892 5892 5892 5892 5892 5892 5892 5891 5891
5882 5881 5881 5881 5881 5882 5882 5882 5882 5883 5883 5884 5885 5885 5886 5886 5887 5888 5888 5889 5890 5890 5891 5892 5892 5893 5893 5893 5893 5894 5893 5893 5893 5893 5893 5893 5893 5893 5892 5892 5892 5891 5891
5883 5883 5883 5883 5883 5883 5883 5883 5884 5885 5885 5886 5886 5887 5887 5888 5889 5889 5890 5890 5891 5891 5892 5892 5892 5893 5894 5894 5894 5894 5894 5894 5894 5893 5893 5893 5893 5892 5892 5892 5891 5891 5890
5885 5885 5884 5884 5884 5885 5885 5885 5886 5886 5886 5887 5888 5888 5889 5889 5890 5890 5891 5891 5892 5892 5893 5893 5893 5894 5894 5894 5894 5894 5894 5894 5894 5893 5893 5893 5892 5892 5891 5891 5891 5890 5890
5886 5886 5886 5885 5885 5886 5886 5886 5887 5887 5888 5888 5889 5890 5890 5891 5891 5892 5892 5892 5893 5893 5893 5894 5894 5894 5894 5895 5895 5895 5894 5894 5894 5893 5893 5892 5891 5891 5891 5890 5890 5889 5889
5888 5888 5887 5887 5887 5887 5888 5888 5888 5889 5889 5890 5890 5891 5891 5892 5892 5893 5893 5893 5894 5894 5894 5894 5894 5894 5895 5895 5895 5895 5894 5894 5893 5893 5892 5891 5891 5891 5890 5889 5889 5888 5887
5889 5889 5889 5889 5888 5889 5889 5889 5890 5890 5891 5891 5891 5892 5893 5893 5893 5894 5894 5894 5894 5895 5895 5895 5895 5895 5895 5895 5895 5895 5894 5894 5893 5892 5892 5891 5890 5890 5889 5888 5887 5886 5886
5892 5891 5891 5891 5891 5891 5891 5891 5892 5892 5892 5892 5892 5893 5893 5893 5894 5894 5894 5895 5895 5895 5895 5895 5895 5896 5895 5895 5895 5894 5894 5893 5892 5892 5891 5890 5889 5888 5887 5886 5885 5885 5884
5894 5893 5893 5893 5893 5893 5893 5893 5893 5894 5893 5893 5893 5894 5894 5894 5894 5895 5895 5895 5896 5896 5895 5895 5895 5895 5895 5895 5894 5894 5893 5892 5892 5891 5890 5889 5888 5887 5886 5884 5883 5882 5882
5896 5896 5895 5895 5895 5895 5895 5895 5895 5894 5894 5894 5894 5894 5894 5895 5895 5895 5896 5896 5896 5896 5896 5896 5895 5895 5895 5894 5894 5893 5892 5891 5891 5890 5889 5887 5886 5885 5884 5883 5882 5880 5880
5899 5898 5897 5897 5897 5897 5896 5896 5896 5896 5896 5895 5895 5895 5895 5896 5896 5896 5896 5896 5896 5896 5896 5895 5895 5895 5894 5894 5893 5892 5891 5890 5889 5888 5887 5885 5884 5883 5882 5881 5880 5879 5877
5901 5900 5900 5899 5899 5898 5898 5898 5898 5898 5897 5897 5896 5896 5896 5897 5897 5897 5897 5897 5897 5896 5896 5895 5895 5894 5894 5893 5892 5891 5890 5889 5888 5887 5885 5884 5882 5881 5880 5879 5878 5876 5875
5904 5903 5902 5902 5901 5900 5900 5900 5899 5899 5899 5898 5898 5897 5897 5897 5898 5897 5897 5897 5897 5896 5896 5895 5895 5894 5893 5892 5891 5890 5889 5888 5887 5886 5884 5882 5881 5879 5878 5876 5875 5874 5873
5906 5905 5904 5904 5903 5902 5902 5901 5901 5900 5900 5899 5899 5899 5898 5898 5898 5898 5897 5897 5897 5896 5895 5895 5894 5893 5892 5891 5890 5889 5887 5887 5885 5884 5883 5881 5879 5877 5875 5874 5873 5871 5870
5907 5907 5906 5905 5904 5904 5903 5903 5902 5902 5901 5901 5900 5900 5899 5899 5898 5898 5897 5897 5896 5896 5895 5894 5893 5892 5891 5890 5889 5888 5886 5885 5884 5882 5881 5879 5877 5875 5873 5872 5870 5868 5867
5909 5908 5907 5907 5905 5904 5904 5904 5903 5902 5902 5901 5900 5900 5900 5899 5898 5898 5897 5896 5896 5895 5894 5893 5892 5891 5890 5888 5887 5886 5885 5883 5882 5880 5879 5877 5875 5873 5871 5869 5867 5865 5864
5910 5909 5908 5908 5907 5906 5905 5905 5904 5903 5902 5902 5901 5900 5900 5899 5898 5897 5896 5895 5895 5894 5893 5891 5890 5889 5888 5886 5885 5883 5882 5881 5879 5878 5876 5874 5872 5870 5868 5866 5864 5862 5861
5910 5909 5909 5908 5907 5906 5905 5905 5904 5904 5903 5902 5901 5900 5900 5899 5898 5896 5895 5894 5893 5892 5891 5890 5889 5887 5886 5884 5883 5881 5880 5878 5877 5875 5873 5871 5869 5867 5865 5863 5861 5859 5857